This is the latest recevied weather packets stored in our database for station/object M0JUI-1. If no packets are shown the sender has not sent any weather packets the latest 10 day(s).
| Time | Temp. | Humidity | Pressure | Rain* | Wind** | Luminosity | Snow |
|---|---|---|---|---|---|---|---|
| 1777766187 | 10.56° C | 99% | 1010.7 hPa | 1.78 mm | - | 0 W/m² | - |
| 1777765887 | 10.56° C | 99% | 1010.4 hPa | 2.03 mm | - | 0 W/m² | - |
| 1777765587 | 10.56° C | 99% | 1010.7 hPa | 2.29 mm | - | 0 W/m² | - |
| 1777765287 | 10.56° C | 99% | 1010.6 hPa | 2.54 mm | - | 0 W/m² | - |
| 1777764987 | 10.56° C | 99% | 1010.6 hPa | 2.79 mm | - | 0 W/m² | - |
| 1777764687 | 10.56° C | 99% | 1010.6 hPa | 2.79 mm | - | 0 W/m² | - |
| 1777764388 | 10.56° C | 99% | 1010.7 hPa | 2.54 mm | - | 0 W/m² | - |
| 1777764087 | 10.56° C | 99% | 1010.8 hPa | 2.54 mm | - | 0 W/m² | - |
| 1777763788 | 10.56° C | 99% | 1010.8 hPa | 2.29 mm | - | 0 W/m² | - |
| 1777763488 | 10.56° C | 99% | 1010.7 hPa | 2.54 mm | - | 0 W/m² | - |
| 1777763187 | 10.56° C | 99% | 1010.8 hPa | 2.54 mm | - | 0 W/m² | - |
| 1777762887 | 10.56° C | 99% | 1010.7 hPa | 3.05 mm | - | 0 W/m² | - |
| 1777762587 | 10.56° C | 99% | 1010.8 hPa | 3.05 mm | - | 0 W/m² | - |
| 1777762287 | 11.11° C | 99% | 1010.9 hPa | 2.79 mm | - | 0 W/m² | - |
| 1777761987 | 11.11° C | 99% | 1011 hPa | 2.79 mm | - | 0 W/m² | - |
| 1777761687 | 11.11° C | 99% | 1010.8 hPa | 2.54 mm | - | 0 W/m² | - |
| 1777761387 | 11.11° C | 99% | 1011.1 hPa | 2.29 mm | - | 0 W/m² | - |
| 1777761087 | 10.56° C | 99% | 1011.2 hPa | 2.29 mm | - | 0 W/m² | - |
| 1777760787 | 10.56° C | 99% | 1010.8 hPa | 2.54 mm | - | 0 W/m² | - |
| 1777760487 | 11.11° C | 99% | 1011 hPa | 2.29 mm | - | 0 W/m² | - |
| 1777760190 | 11.11° C | 99% | 1011 hPa | 2.54 mm | - | 0 W/m² | - |
| 1777759887 | 11.11° C | 99% | 1011.2 hPa | 2.54 mm | - | 0 W/m² | - |
| 1777759576 | 11.11° C | 98% | 1011.3 hPa | 2.54 mm | - | 0 W/m² | - |
| 1777759266 | 11.11° C | 97% | 1011.4 hPa | 2.54 mm | - | 0 W/m² | - |
| 1777758969 | 11.11° C | 97% | 1011.3 hPa | 2.54 mm | - | 0 W/m² | - |
* Rain latest hour (hover to see other rain measurements)
** Current wind speed in m/s (hover to see current wind gust speed)